sat.trackr.live / text

‹ back to catalog

STARLINK-30576

NORAD 58065 · 2023-158Q

PAYLOAD ACTIVE UNKNOWN

§ Identity

Operator
Country
US
Launch date
2023-10-13
Launch site
AFETR
Launch vehicle
Mass (kg)
RCS (m²)

Purposes: comms

External: N2YO · Heavens-Above · Gunter

§ Orbital elements

Epoch: 2026-09-20T13:32:28.573440Z

Period
94.27 min
Inclination
43.0033°
Eccentricity
0.0001689
Mean motion
15.27576639 rev/d
Perigee alt
481.9 km
Apogee alt
484.2 km
Semi-major
6,861.2 km
B*
7.0664e-5
RAAN
6.4953°
Arg perigee
269.7046°
Mean anomaly
90.3612°
Rev number
16,337

§ Raw data

STARLINK-305761 58065U 23158Q   26263.56421960  .00001683  00000+0  70664-4 0  99992 58065  43.0033   6.4953 0001689 269.7046  90.3612 15.27576639163376

JSON: /api/v1/satellites/58065 · /tle

For live sub-satellite position, see the globe view (requires WebGL).

§ Visibility from observer

Set your observer location to see the next 7 days of passes ≥ 10°. The values pass through the URL so the page stays shareable.

No JS? Fill the form by hand. The geolocation button needs JavaScript.